Weather History for Plattsburgh, NY

Change the Weather History Date:

Saturday, April 27, 2013

  Actual Average Record
Temperature  
Mean Temperature 43 °F 49 °F  
Max Temperature 57 °F 60 °F 92 °F (1990)
Min Temperature 28 °F 38 °F 21 °F (1966)
Degree Days  
Heating Degree Days 22 16  
Month to date heating degree days 634 614  
Since 1 July heating degree days 6803 7297  
Cooling Degree Days 0 0  
Month to date cooling degree days 0 0  
Year to date cooling degree days 0 0  
Moisture  
Dew Point 30 °F    
Average Humidity 65    
Maximum Humidity 100    
Minimum Humidity 30    
Precipitation  
Precipitation 0.00 in - 0.56 in (1968)
Month to date precipitation 1.57  
Year to date precipitation 3.93  
Sea Level Pressure  
Sea Level Pressure 30.39 in    
Wind  
Wind Speed 2 mph (ESE)    
Max Wind Speed 8 mph    
Max Gust Speed 29 mph    
Visibility 10 miles    
Events      
T = Trace of Precipitation, MM = Missing Value Source: NWS Daily Summary

Daily Weather History Graph

Daily Weather History Graph

Search for Another Location

Airport:

Trip Planner

Search our weather history database for the weather conditions in past years. The results will help you decide how hot, cold, wet, or windy it might be!

Date:

Astronomy

Apr. 27, 2013 Rise Set
Actual Time 5:49 AM EDT 7:54 PM EDT
Civil Twilight 5:18 AM EDT 8:25 PM EDT
Nautical Twilight 4:39 AM EDT 9:04 PM EDT
Astronomical Twilight 3:56 AM EDT 9:48 PM EDT
Moon 10:24 PM EDT (4/27) 7:01 AM EDT (4/27)
Length of Visible Light 15h 07m
Length of Day
14h 04m
Waning Gibbous, 95% of the Moon is Illuminated
Apr 27
Waning Gibbous
May 2
Last Quarter
May 9
New
May 18
First Quarter
May 25
Full

Hourly Weather History & Observations

Time (EDT) Temp. Dew Point Humidity Pressure Visibility Wind Dir Wind Speed Gust Speed Precip Events Conditions
12:53 AM 32.0 °F 30.0 °F 92% 30.46 in 10.0 mi Calm Calm - N/A   Clear
1:53 AM 30.9 °F 30.0 °F 96% 30.45 in 10.0 mi Calm Calm - N/A   Clear
2:53 AM 32.0 °F 30.9 °F 96% 30.44 in 10.0 mi Calm Calm - N/A   Clear
3:53 AM 32.0 °F 30.0 °F 92% 30.44 in 10.0 mi Calm Calm - N/A   Clear
4:53 AM 30.0 °F 28.9 °F 96% 30.44 in 10.0 mi Calm Calm - N/A   Clear
5:53 AM 28.0 °F 27.0 °F 96% 30.44 in 2.0 mi Calm Calm - N/A   Clear
6:01 AM 28.4 °F 28.4 °F 100% 30.43 in 8.0 mi Calm Calm - N/A   Clear
6:53 AM 32.0 °F 30.0 °F 92% 30.45 in 10.0 mi Calm Calm - N/A   Clear
7:53 AM 37.9 °F 33.1 °F 83% 30.45 in 10.0 mi Calm Calm - N/A   Clear
8:53 AM 44.1 °F 32.0 °F 63% 30.46 in 10.0 mi Calm Calm - N/A   Clear
9:53 AM 48.0 °F 34.0 °F 58% 30.45 in 10.0 mi ESE 4.6 mph - N/A   Clear
10:53 AM 51.1 °F 35.1 °F 54% 30.44 in 10.0 mi ESE 4.6 mph - N/A   Partly Cloudy
11:53 AM 52.0 °F 32.0 °F 47% 30.43 in 10.0 mi ESE 6.9 mph - N/A   Overcast
12:53 PM 53.1 °F 30.9 °F 43% 30.41 in 10.0 mi ESE 4.6 mph - N/A   Scattered Clouds
1:53 PM 53.1 °F 30.0 °F 41% 30.39 in 10.0 mi ESE 4.6 mph - N/A   Overcast
2:53 PM 55.0 °F 30.9 °F 40% 30.37 in 10.0 mi ESE 3.5 mph - N/A   Mostly Cloudy
3:53 PM 55.9 °F 28.0 °F 34% 30.34 in 10.0 mi ENE 6.9 mph - N/A   Mostly Cloudy
4:53 PM 55.9 °F 27.0 °F 33% 30.32 in 10.0 mi NE 4.6 mph - N/A   Overcast
5:53 PM 57.0 °F 26.1 °F 30% 30.31 in 10.0 mi ESE 3.5 mph - N/A   Clear
6:53 PM 55.9 °F 27.0 °F 33% 30.30 in 10.0 mi Calm Calm - N/A   Clear
7:53 PM 50.0 °F 30.0 °F 46% 30.30 in 10.0 mi Calm Calm - N/A   Clear
8:53 PM 44.1 °F 34.0 °F 68% 30.30 in 10.0 mi Calm Calm - N/A   Clear
9:53 PM 42.1 °F 33.1 °F 70% 30.31 in 10.0 mi Calm Calm - N/A   Clear
10:53 PM 39.0 °F 32.0 °F 76% 30.31 in 10.0 mi Calm Calm - N/A   Clear
11:53 PM 37.0 °F 30.9 °F 79% 30.31 in 10.0 mi Calm Calm - N/A   Clear